Location: Gajan
(43.0218°N, 1.1244°E)
Time: 16:32:30
(UTC+00:00)

SL-4 R/B - Pass Details

Date: 22 April 2021
Orbit: 427 x 663 km, 51.6° (Epoch: 12 May)

Event Time Altitude Azimuth Distance (km) Brightness Sun altitude
Rises 19:43:15 0° 220° (SW) 2,704 5.7 -10.4°
Reaches altitude 10° 19:45:27 10° 215° (SW) 1,854 4.8 -10.7°
Maximum altitude 19:49:35 52° 139° (SE) 745 2.3 -11.4°
Drops below altitude 10° 19:54:02 10° 64° (ENE) 1,998 4.5 -12.1°
Sets 19:56:28 0° 60° (ENE) 2,939 5.4 -12.5°
